Total_Precipitation_Accumulation
0.19 0.30 0.73 0.98 0.99 0.91 0.83 0.73 0.66 0.65 0.61 0.59 0.58 0.57 0.52 0.49 0.46 0.46 0.51 0.55 0.62 0.73 0.85 0.90 0.93 0.99 0.95 0.77 0.59 0.45 0.43 0.43 0.37 0.33 0.31 0.35 0.41 0.44 0.38 0.39 0.41 0.48 0.65
0.22 0.32 0.66 0.98 1.09 1.05 0.95 0.84 0.71 0.64 0.62 0.64 0.65 0.67 0.63 0.57 0.55 0.55 0.62 0.68 0.77 0.88 0.96 0.95 0.92 0.94 0.87 0.72 0.56 0.40 0.30 0.24 0.17 0.11 0.10 0.13 0.27 0.39 0.37 0.36 0.39 0.54 0.61
0.24 0.35 0.61 0.95 1.13 1.13 1.05 0.95 0.85 0.78 0.72 0.75 0.79 0.81 0.78 0.72 0.69 0.70 0.75 0.78 0.86 0.95 0.93 0.93 0.87 0.84 0.75 0.65 0.51 0.40 0.28 0.21 0.15 0.10 0.11 0.19 0.33 0.47 0.42 0.40 0.46 0.56 0.57
0.28 0.39 0.61 0.94 1.18 1.22 1.17 1.08 1.01 1.00 0.93 0.89 0.92 0.95 0.93 0.91 0.85 0.83 0.85 0.87 0.88 0.90 0.83 0.79 0.68 0.61 0.51 0.47 0.43 0.37 0.29 0.22 0.14 0.12 0.18 0.24 0.35 0.62 0.61 0.57 0.59 0.58 0.57
0.43 0.54 0.78 1.05 1.26 1.34 1.26 1.24 1.21 1.19 1.16 1.11 1.04 1.05 1.07 1.03 0.98 0.92 0.89 0.89 0.84 0.81 0.73 0.67 0.55 0.43 0.38 0.34 0.34 0.33 0.25 0.19 0.15 0.17 0.22 0.29 0.40 0.79 0.73 0.68 0.64 0.57 0.57
0.59 0.71 0.98 1.21 1.36 1.43 1.32 1.31 1.34 1.35 1.36 1.32 1.18 1.12 1.14 1.13 1.04 0.93 0.88 0.81 0.72 0.68 0.66 0.56 0.48 0.40 0.34 0.33 0.32 0.31 0.26 0.17 0.15 0.18 0.23 0.30 0.42 0.74 0.68 0.61 0.59 0.59 0.60
0.82 0.94 1.16 1.45 1.63 1.67 1.57 1.50 1.48 1.46 1.46 1.47 1.37 1.25 1.27 1.27 1.22 1.05 0.89 0.76 0.65 0.62 0.58 0.52 0.45 0.41 0.37 0.35 0.36 0.29 0.22 0.16 0.16 0.20 0.23 0.32 0.50 0.75 0.72 0.65 0.62 0.60 0.67
1.03 1.17 1.41 1.70 1.82 1.91 1.82 1.73 1.70 1.66 1.55 1.52 1.52 1.45 1.40 1.41 1.40 1.19 0.93 0.79 0.72 0.67 0.60 0.55 0.51 0.45 0.40 0.36 0.33 0.27 0.20 0.14 0.15 0.17 0.20 0.27 0.49 0.73 0.74 0.69 0.63 0.58 0.62
1.33 1.50 1.66 1.85 1.96 2.16 2.01 1.83 1.84 1.81 1.70 1.62 1.60 1.53 1.43 1.41 1.36 1.20 0.98 0.87 0.82 0.76 0.67 0.61 0.59 0.53 0.46 0.39 0.33 0.25 0.20 0.14 0.12 0.16 0.16 0.25 0.44 0.68 0.73 0.73 0.70 0.66 0.60
1.67 1.84 1.92 2.05 2.12 2.30 2.27 2.00 1.82 1.72 1.67 1.69 1.61 1.40 1.19 1.19 1.24 1.19 0.94 0.87 0.86 0.78 0.70 0.66 0.62 0.57 0.48 0.38 0.31 0.25 0.21 0.20 0.15 0.14 0.18 0.24 0.43 0.67 0.70 0.75 0.79 0.75 0.69
2.07 2.13 2.19 2.20 2.18 2.29 2.38 2.20 2.08 1.92 1.82 1.74 1.65 1.38 1.22 1.26 1.22 1.13 0.91 0.76 0.82 0.79 0.75 0.75 0.73 0.64 0.50 0.39 0.30 0.22 0.20 0.23 0.21 0.19 0.20 0.31 0.48 0.66 0.70 0.73 0.74 0.73 0.64
2.18 2.27 2.37 2.32 2.29 2.37 2.41 2.36 2.37 2.21 2.04 1.88 1.67 1.51 1.40 1.30 1.30 1.15 1.06 0.86 0.86 0.86 0.83 0.83 0.76 0.73 0.59 0.43 0.34 0.28 0.24 0.22 0.23 0.22 0.24 0.37 0.57 0.69 0.68 0.65 0.63 0.65 0.64
2.36 2.44 2.54 2.48 2.50 2.50 2.47 2.36 2.34 2.26 2.24 2.13 1.93 1.67 1.56 1.48 1.40 1.39 1.22 1.08 1.02 0.91 0.92 0.86 0.79 0.72 0.61 0.50 0.44 0.34 0.29 0.29 0.27 0.24 0.27 0.38 0.59 0.70 0.72 0.69 0.65 0.63 0.70
2.58 2.73 2.75 2.70 2.74 2.70 2.60 2.41 2.23 2.10 2.08 2.11 1.98 1.91 1.77 1.64 1.49 1.37 1.22 1.09 1.05 0.96 0.92 0.85 0.74 0.66 0.59 0.55 0.53 0.46 0.37 0.31 0.29 0.29 0.28 0.32 0.45 0.64 0.73 0.73 0.74 0.74 0.78
2.85 2.92 3.00 2.96 2.86 2.76 2.75 2.64 2.29 2.04 1.87 1.93 1.97 1.97 1.89 1.67 1.49 1.42 1.28 1.22 1.12 1.01 0.99 0.96 0.84 0.72 0.65 0.62 0.56 0.50 0.46 0.39 0.35 0.36 0.33 0.30 0.33 0.50 0.71 0.75 0.79 0.84 0.91
3.03 3.18 3.31 3.21 3.08 2.82 2.66 2.66 2.46 2.16 1.96 1.90 1.88 1.89 2.00 1.87 1.68 1.61 1.41 1.36 1.28 1.18 1.13 1.11 1.03 0.98 0.86 0.77 0.66 0.57 0.54 0.49 0.46 0.48 0.46 0.39 0.34 0.39 0.57 0.79 0.98 1.05 1.11
3.13 3.37 3.48 3.47 3.34 3.03 2.76 2.71 2.59 2.38 2.20 2.05 1.77 1.75 1.88 1.96 1.93 1.88 1.60 1.47 1.40 1.37 1.38 1.34 1.25 1.17 1.09 0.96 0.81 0.73 0.65 0.57 0.51 0.50 0.48 0.45 0.40 0.37 0.43 0.66 0.91 1.04 1.14
3.19 3.40 3.52 3.55 3.51 3.30 2.99 2.86 2.77 2.57 2.41 2.27 2.04 1.86 1.82 1.89 2.03 2.09 1.78 1.54 1.45 1.46 1.44 1.39 1.32 1.21 1.06 1.01 0.94 0.85 0.75 0.67 0.60 0.53 0.50 0.46 0.41 0.36 0.35 0.43 0.62 0.83 0.99
3.02 3.30 3.60 3.59 3.51 3.44 3.31 3.19 3.08 2.95 2.72 2.51 2.23 2.01 1.98 1.98 2.09 2.24 1.93 1.65 1.58 1.56 1.48 1.47 1.42 1.37 1.20 1.06 1.02 0.98 0.88 0.77 0.69 0.61 0.54 0.47 0.41 0.36 0.33 0.33 0.37 0.50 0.68
2.83 3.16 3.39 3.71 3.69 3.75 3.75 3.62 3.48 3.36 3.13 2.84 2.47 2.16 2.10 2.07 2.11 2.30 2.19 1.92 1.84 1.76 1.64 1.52 1.46 1.48 1.46 1.35 1.22 1.12 1.02 0.91 0.82 0.72 0.62 0.54 0.45 0.38 0.34 0.33 0.34 0.37 0.45
2.59 2.91 3.09 3.35 3.62 3.74 3.70 3.46 3.28 3.16 3.22 3.11 2.78 2.48 2.42 2.29 2.16 2.23 2.29 2.18 2.03 1.92 1.77 1.67 1.61 1.56 1.59 1.64 1.60 1.44 1.27 1.11 0.93 0.81 0.72 0.63 0.55 0.48 0.44 0.42 0.43 0.43 0.43
2.31 2.50 2.81 2.95 3.31 3.44 3.34 3.34 3.24 3.23 3.26 3.26 3.09 2.83 2.71 2.59 2.40 2.30 2.27 2.26 2.18 2.09 1.99 1.94 1.86 1.81 1.71 1.68 1.68 1.67 1.57 1.50 1.20 0.91 0.82 0.77 0.68 0.63 0.58 0.54 0.53 0.52 0.52
2.06 2.33 2.44 2.61 2.89 3.23 3.35 3.55 3.69 3.69 3.49 3.30 3.18 3.09 2.91 2.85 2.73 2.50 2.37 2.37 2.34 2.22 2.10 2.06 2.03 2.05 2.04 1.96 1.80 1.88 1.75 1.50 1.28 1.08 0.91 0.84 0.79 0.75 0.69 0.64 0.60 0.59 0.59
1.71 2.10 2.41 2.61 2.80 3.02 3.43 3.51 3.45 3.34 3.11 2.87 2.93 3.03 3.03 2.96 2.92 2.73 2.63 2.60 2.51 2.35 2.24 2.25 2.22 2.23 2.27 2.23 2.10 1.90 1.73 1.48 1.41 1.27 1.03 0.90 0.85 0.78 0.74 0.72 0.66 0.60 0.59
1.45 1.83 2.20 2.48 2.83 3.08 3.25 3.35 3.43 3.25 3.00 2.93 2.93 2.95 2.89 2.84 2.85 2.82 2.74 2.81 2.73 2.58 2.45 2.44 2.44 2.43 2.42 2.38 2.25 2.10 1.99 1.76 1.53 1.46 1.27 1.05 1.01 0.90 0.80 0.75 0.72 0.71 0.73
1.34 1.56 1.94 2.23 2.41 2.73 3.05 3.13 3.19 3.18 3.13 3.03 2.86 2.81 2.84 2.83 2.82 2.82 2.82 2.82 2.80 2.77 2.67 2.58 2.53 2.51 2.48 2.43 2.36 2.21 2.12 2.01 1.79 1.69 1.54 1.31 1.26 1.15 1.00 0.92 0.86 0.81 0.80